Regional Weather Roundup
Issued by NWS

Home | Current Version | Previous Version | Text Only | Print | Product List | Glossary Off
Versions: 1 2 3 4 5 6 7 8 9 10 11 12 13 14 15 16 17 18 19 20 21 22 23 24 25 26 27 28 29 30 31 32 33 34 35 36 37 38 39 40 41 42 43 44 45 46 47 48 49 50

000
ASUS43 KLMK 281102
RWRKY
KENTUCKY REGIONAL WEATHER ROUNDUP
NATIONAL WEATHER SERVICE LOUISVILLE KY
700 AM EDT SUN AUG 28 2016

NOTE "FAIR" INDICATES FEW OR NO CLOUDS BELOW 12,000 FEET
WITH NO SIGNIFICANT WEATHER AND/OR OBSTRUCTIONS TO VISIBILITY.

KYZ001>023-026-027-061>063-070>075-281200-
WESTERN AND SOUTH CENTRAL KENTUCKY

CITY           SKY/WX    TMP DP  RH WIND       PRES   REMARKS
PADUCAH        FOG       72  70  93 CALM      30.10R VSB 1/4
HENDERSON      CLOUDY    72  70  94 CALM      30.11S VSB 3/4
OWENSBORO      CLEAR     76  76 100 CALM      30.13R FOG
HOPKINSVILLE   CLEAR     72  70  93 CALM      30.12R
BOWLING GREEN  CLEAR     71  69  93 E3        30.14R
GLASGOW        CLEAR     69  69 100 CALM      30.15R
$$

KYZ024-025-028>034-038-045-046-053-281200-
NORTH CENTRAL KENTUCKY

CITY           SKY/WX    TMP DP  RH WIND       PRES   REMARKS
LOUISVILLE/SDF PTCLDY    75  71  87 SE6       30.15R
LOUISVILLE/LOU CLEAR     75  71  87 CALM      30.16R
FORT KNOX      MOCLDY    70  69  98 W2        30.14R
$$

KYZ035>037-039>044-047>052-055>060-089>105-281200-
NORTHEAST KENTUCKY

CITY           SKY/WX    TMP DP  RH WIND       PRES   REMARKS
LEXINGTON      PTCLDY    71  68  90 CALM      30.18R
COVINGTON      CLOUDY    72  72 100 N5        30.17R
FRANKFORT      PTCLDY    73  70  90 CALM      30.15R
$$

KYZ054-064>069-076>088-106>120-281200-
SOUTHEAST KENTUCKY

CITY           SKY/WX    TMP DP  RH WIND       PRES   REMARKS
JACKSON        PTCLDY    72  70  93 CALM      30.20R
LONDON         CLEAR     70  66  87 CALM      30.19R
SOMERSET       PTCLDY    66  66 100 CALM      30.18S
MIDDLESBORO    FOG       67  67 100 CALM      30.22R VSB 3/4
MONTICELLO     SUNNY    N/A N/A N/A NW8       30.19R
$$





USA.gov is the U.S. government's official web portal to all federal, state and local government web resources and services.